INTELSAT 33E DEB, 61990

Orbit data source: Space-Track

INTELSAT 33E DEB, 61990 is space debris in GEO originally from a launch on Wed, 24 Aug 2016 UTC launched from the French Guiana (FRGUI). Debris objects in space refer to the collection of defunct objects orbiting the Earth. Examples of debris include non-operational satellites, rocket bodies, and fragments generated from explosions, collisions, or faulty payload assembly.

Loading next visibility...
Identifier
61990, 2016-053G
Orbit
GEO
Country
Flag of USUS / ITSO
Related business
Manufacturer
Boeing/ES
Mission
Spacecraft
Bus & Motor
Unknown
Mass
Unknown
Launch date (UTC)
2016-08-24 (10 years ago)
Launch vehicle
Unknown
Launch site
French Guiana (FRGUI)
Object type
Payload
Rocket body
Debris
Shape & HBR
Unknown shape, 1.1 m
Radar Cross Section
RCS unknown

Expand to show TLE details & history
Last TLE update: 4 days ago

TLE from 4 days ago
0 INTELSAT 33E DEB
1 61990U 16053G   26162.65064889 -.00000264  00000-0  00000-0 0  9996
2 61990   1.4498  75.3291 0160873 345.3043  13.3765  1.01398750  6091
Epoch: 2026-06-11T15:36Z
TLE epoch observation values (Epoch: 2026-06-11T15:36:56.064Z)
Latitude
-0.00001°
Longitude
-59.79219°
Altitude
34,815.547 km
Speed
3.135 km/s
True Right ascension
04h 57m 43s
True Declination
0° 00' 00"
Sunlit
Object was in daylight at epoch
Visualization orbit readout
Latitude
Unknown
Longitude
Unknown
Altitude
Unknown
Speed
Unknown
Apparent Right ascension
Unknown
Apparent Declination
Unknown
Sunlit
N/A
Visualization observer readout
Local Sidereal Time
03:53:49
Azimuth
Unknown
Elevation
Unknown
Doppler factor
Unknown
Orbital elements
Apogee altitude
36,147.972 km
Perigee altitude
34,801.374 km
Semi-major axis
41,852.81 km
Eccentricity
0.01609
Inclination
1.4498°
RAAN
75.3291°
Arg. of periapsis
345.3043°
True anomaly
13.81148°
Mean anomaly
13.3765°
Eccentric anomaly
13.59313°
Mean motion
0.25349 °/min
Orbital period
1,420.19 mins
BSTAR
0
Loading maneuver chart data...
Computing Atmospheric mass density...
Loading historical data...
Loading historical data...
Loading historical data...
Loading historical data...
Loading historical data...
Loading historical data...
Loading historical data...

Documentation

Showing up to 5 results
|